Eastover, SC

2:46 PM EDT on August 23, 2017 (GMT -0400)
McEntire Angs

Weather History for KMMT - January, 2014

Change the Weather History Date:

Friday, January 17, 2014

  Actual Average Record
Temperature  
Mean Temperature 42 °F -  
Max Temperature 56 °F 53 °F 76 °F (2013)
Min Temperature 27 °F 33 °F 15 °F (2009)
Degree Days  
Heating Degree Days 24    
Moisture  
Dew Point 27 °F    
Average Humidity 56    
Maximum Humidity 90    
Minimum Humidity 33    
Precipitation  
Precipitation 0.00 in - - ()
Sea Level Pressure  
Sea Level Pressure 30.00 in    
Wind  
Wind Speed 6 mph (SW)    
Max Wind Speed 15 mph    
Max Gust Speed 23 mph    
Visibility 10 miles    
Events      
Averages and records for this station are not official NWS values.
T = Trace of Precipitation, MM = Missing Value Source: NWS Daily Summary

Daily Weather History Graph

Daily Weather History Graph

Search for Another Location

Airport or City:

Trip Planner

Search our weather history database for the weather conditions in past years. The results will help you decide how hot, cold, wet, or windy it might be!

Date:

Astronomy

Jan. 17, 2014 Rise Set
Actual Time 7:27 AM EST 5:39 PM EST
Civil Twilight 7:00 AM EST 6:06 PM EST
Nautical Twilight 6:30 AM EST 6:36 PM EST
Astronomical Twilight 6:00 AM EST 7:06 PM EST
Moon 7:17 PM EST (1/17) 8:00 AM EST (1/17)
Length of Visible Light 11h 05m
Length of Day
10h 11m
Full, 98% of the Moon is Illuminated
Jan 17
Full
Jan 24
Last Quarter
Jan 30
New
Feb 6
First Quarter
Feb 14
Full

Hourly Weather History & Observations

Time (EST) Temp. Windchill Dew Point Humidity Pressure Visibility Wind Dir Wind Speed Gust Speed Precip Events Conditions
12:58 AM 34.2 °F 30.0 °F 21.0 °F 59% 30.09 in 10.0 mi SSW 4.6 mph - N/A   Clear
1:58 AM 29.5 °F 25.9 °F 23.9 °F 80% 30.09 in 10.0 mi South 3.5 mph - N/A   Clear
2:58 AM 27.7 °F 23.8 °F 23.5 °F 84% 30.08 in 10.0 mi SE 3.5 mph - N/A   Clear
3:58 AM 29.7 °F - 20.5 °F 69% 30.07 in 10.0 mi Calm Calm - N/A   Clear
4:58 AM 27.0 °F 23.0 °F 24.3 °F 90% 30.06 in 10.0 mi East 3.5 mph - N/A   Clear
5:58 AM 27.0 °F 21.6 °F 22.6 °F 84% 30.06 in 10.0 mi SE 4.6 mph - N/A   Clear
6:58 AM 27.0 °F - 22.5 °F 83% 30.06 in 10.0 mi East 2.3 mph - N/A   Clear
7:58 AM 29.3 °F 24.3 °F 21.4 °F 72% 30.06 in 10.0 mi West 4.6 mph - N/A   Clear
8:58 AM 39.0 °F 34.0 °F 24.6 °F 56% 30.08 in 10.0 mi SW 6.9 mph - N/A   Clear
9:58 AM 43.2 °F 37.4 °F 26.2 °F 51% 30.07 in 10.0 mi WSW 10.4 mph - N/A   Partly Cloudy
10:58 AM 48.2 °F - 28.8 °F 47% 30.06 in 10.0 mi West 8.1 mph - N/A   Partly Cloudy
11:58 AM 52.2 °F - 30.0 °F 43% 30.02 in 10.0 mi SSW 8.1 mph - N/A   Scattered Clouds
12:58 PM 53.2 °F - 30.6 °F 42% 29.98 in 10.0 mi Variable 4.6 mph - N/A   Mostly Cloudy
1:58 PM 55.9 °F - 32.4 °F 41% 29.95 in 10.0 mi SSW 12.7 mph - N/A   Mostly Cloudy
2:58 PM 56.3 °F - 33.3 °F 42% 29.94 in 10.0 mi SW 8.1 mph 18.4 mph N/A   Mostly Cloudy
3:58 PM 56.1 °F - 34.0 °F 43% 29.92 in 10.0 mi SSW 13.8 mph - N/A   Clear
4:58 PM 55.4 °F - 32.7 °F 42% 29.91 in 10.0 mi SSW 11.5 mph 23.0 mph N/A   Clear
5:58 PM 51.8 °F - 32.7 °F 48% 29.91 in 10.0 mi SW 4.6 mph - N/A   Clear
6:58 PM 48.4 °F - 33.1 °F 56% 29.93 in 10.0 mi SSW 2.3 mph - N/A   Clear
7:58 PM 47.1 °F - 33.8 °F 60% 29.93 in 10.0 mi SSW 5.8 mph - N/A   Mostly Cloudy
8:58 PM 50.5 °F - 32.5 °F 50% 29.94 in 10.0 mi West 6.9 mph - N/A   Mostly Cloudy
9:58 PM 50.4 °F - 24.3 °F 36% 29.95 in 10.0 mi West 12.7 mph 19.6 mph N/A   Clear
10:58 PM 48.0 °F - 20.1 °F 33% 29.97 in 10.0 mi WNW 15.0 mph 23.0 mph N/A   Mostly Cloudy
11:58 PM 44.4 °F 38.2 °F 18.5 °F 35% 29.97 in 10.0 mi West 12.7 mph - N/A   Partly Cloudy